Year,Month,Day,Hour,Minute,Value (Times are PST for temperature in C)
2010,04,24,00,00,2.60
2010,04,24,00,01,2.50
2010,04,24,00,02,2.50
2010,04,24,00,03,2.50
2010,04,24,00,04,2.40
2010,04,24,00,05,2.40
2010,04,24,00,06,2.40
2010,04,24,00,07,2.40
2010,04,24,00,08,2.40
2010,04,24,00,09,2.40
2010,04,24,00,10,2.40
2010,04,24,00,11,2.30
2010,04,24,00,12,2.30
2010,04,24,00,13,2.30
2010,04,24,00,14,2.30
2010,04,24,00,15,2.30
2010,04,24,00,16,2.30
2010,04,24,00,17,2.30
2010,04,24,00,18,2.30
2010,04,24,00,19,2.30
2010,04,24,00,20,2.30
2010,04,24,00,21,2.30
2010,04,24,00,22,2.30
2010,04,24,00,23,2.30
2010,04,24,00,24,2.30
2010,04,24,00,25,2.30
2010,04,24,00,26,2.30
2010,04,24,00,27,2.20
2010,04,24,00,28,2.20
2010,04,24,00,29,2.20
2010,04,24,00,30,2.20
2010,04,24,00,31,2.20
2010,04,24,00,32,2.20
2010,04,24,00,33,2.20
2010,04,24,00,34,2.10
2010,04,24,00,35,2.10
2010,04,24,00,36,2.10
2010,04,24,00,37,2.10
2010,04,24,00,38,2.10
2010,04,24,00,39,2.10
2010,04,24,00,40,2.10
2010,04,24,00,41,2.10
2010,04,24,00,42,2.10
2010,04,24,00,43,2.10
2010,04,24,00,44,2.00
2010,04,24,00,45,2.00
2010,04,24,00,46,2.00
2010,04,24,00,47,2.00
2010,04,24,00,48,2.00
2010,04,24,00,49,1.90
2010,04,24,00,50,1.90
2010,04,24,00,51,1.90
2010,04,24,00,52,1.90
2010,04,24,00,53,1.90
2010,04,24,00,54,1.90
2010,04,24,00,55,1.90
2010,04,24,00,56,1.90
2010,04,24,00,57,1.90
2010,04,24,00,58,1.90
2010,04,24,00,59,1.90
2010,04,24,01,00,1.90
2010,04,24,01,01,1.80
2010,04,24,01,02,1.80
2010,04,24,01,03,1.80
2010,04,24,01,04,1.80
2010,04,24,01,05,1.80
2010,04,24,01,06,1.80
2010,04,24,01,07,1.70
2010,04,24,01,08,1.70
2010,04,24,01,09,1.70
2010,04,24,01,10,1.70
2010,04,24,01,11,1.70
2010,04,24,01,12,1.70
2010,04,24,01,13,1.60
2010,04,24,01,14,1.60
2010,04,24,01,15,1.60
2010,04,24,01,16,1.60
2010,04,24,01,17,1.60
2010,04,24,01,18,1.60
2010,04,24,01,19,1.50
2010,04,24,01,20,1.50
2010,04,24,01,21,1.50
2010,04,24,01,22,1.50
2010,04,24,01,23,1.40
2010,04,24,01,24,1.40
2010,04,24,01,25,1.40
2010,04,24,01,26,1.40
2010,04,24,01,27,1.40
2010,04,24,01,28,1.40
2010,04,24,01,29,1.30
2010,04,24,01,30,1.30
2010,04,24,01,31,1.30
2010,04,24,01,32,1.30
2010,04,24,01,33,1.30
2010,04,24,01,34,1.30
2010,04,24,01,35,1.30
2010,04,24,01,36,1.30
2010,04,24,01,37,1.30
2010,04,24,01,38,1.30
2010,04,24,01,39,1.30
2010,04,24,01,40,1.30
2010,04,24,01,41,1.30
2010,04,24,01,42,1.30
2010,04,24,01,43,1.40
2010,04,24,01,44,1.40
2010,04,24,01,45,1.40
2010,04,24,01,46,1.40
2010,04,24,01,47,1.50
2010,04,24,01,48,1.50
2010,04,24,01,49,1.60
2010,04,24,01,50,1.60
2010,04,24,01,51,1.60
2010,04,24,01,52,1.60
2010,04,24,01,53,1.60
2010,04,24,01,54,1.60
2010,04,24,01,55,1.60
2010,04,24,01,56,1.60
2010,04,24,01,57,1.60
2010,04,24,01,58,1.60
2010,04,24,01,59,1.60
2010,04,24,02,00,1.60
2010,04,24,02,01,1.60
2010,04,24,02,02,1.60
2010,04,24,02,03,1.70
2010,04,24,02,04,1.70
2010,04,24,02,05,1.70
2010,04,24,02,06,1.70
2010,04,24,02,07,1.70
2010,04,24,02,08,1.70
2010,04,24,02,09,1.70
2010,04,24,02,10,1.80
2010,04,24,02,11,1.80
2010,04,24,02,12,1.80
2010,04,24,02,13,1.80
2010,04,24,02,14,1.80
2010,04,24,02,15,1.80
2010,04,24,02,16,1.90
2010,04,24,02,17,1.90
2010,04,24,02,18,1.90
2010,04,24,02,19,1.90
2010,04,24,02,20,1.90
2010,04,24,02,21,2.00
2010,04,24,02,22,2.00
2010,04,24,02,23,2.10
2010,04,24,02,24,2.10
2010,04,24,02,25,2.10
2010,04,24,02,26,2.10
2010,04,24,02,27,2.10
2010,04,24,02,28,2.10
2010,04,24,02,29,2.20
2010,04,24,02,30,2.20
2010,04,24,02,31,2.20
2010,04,24,02,32,2.20
2010,04,24,02,33,2.20
2010,04,24,02,34,2.30
2010,04,24,02,35,2.30
2010,04,24,02,36,2.30
2010,04,24,02,37,2.30
2010,04,24,02,38,2.30
2010,04,24,02,39,2.30
2010,04,24,02,40,2.30
2010,04,24,02,41,2.30
2010,04,24,02,42,2.30
2010,04,24,02,43,2.40
2010,04,24,02,44,2.40
2010,04,24,02,45,2.40
2010,04,24,02,46,2.50
2010,04,24,02,47,2.50
2010,04,24,02,48,2.60
2010,04,24,02,49,2.60
2010,04,24,02,50,2.60
2010,04,24,02,51,2.70
2010,04,24,02,52,2.70
2010,04,24,02,53,2.70
2010,04,24,02,54,2.70
2010,04,24,02,55,2.70
2010,04,24,02,56,2.70
2010,04,24,02,57,2.70
2010,04,24,02,58,2.70
2010,04,24,02,59,2.70
2010,04,24,03,00,2.70
2010,04,24,03,01,2.80
2010,04,24,03,02,2.80
2010,04,24,03,06,2.80
2010,04,24,03,07,2.80
2010,04,24,03,08,2.80
2010,04,24,03,09,2.80
2010,04,24,03,10,2.80
2010,04,24,03,11,2.80
2010,04,24,03,12,2.80
2010,04,24,03,13,2.90
2010,04,24,03,14,2.90
2010,04,24,03,15,2.90
2010,04,24,03,16,2.90
2010,04,24,03,17,2.90
2010,04,24,03,18,2.90
2010,04,24,03,19,2.90
2010,04,24,03,20,2.90
2010,04,24,03,21,2.90
2010,04,24,03,22,2.90
2010,04,24,03,23,2.90
2010,04,24,03,24,2.90
2010,04,24,03,25,2.90
2010,04,24,03,26,2.90
2010,04,24,03,27,2.90
2010,04,24,03,28,2.90
2010,04,24,03,29,2.90
2010,04,24,03,30,2.90
2010,04,24,03,31,2.90
2010,04,24,03,32,2.90
2010,04,24,03,33,2.90
2010,04,24,03,34,2.90
2010,04,24,03,35,2.90
2010,04,24,03,36,2.90
2010,04,24,03,37,2.90
2010,04,24,03,38,2.90
2010,04,24,03,39,2.90
2010,04,24,03,40,2.90
2010,04,24,03,41,2.90
2010,04,24,03,42,2.80
2010,04,24,03,43,2.80
2010,04,24,03,44,2.80
2010,04,24,03,45,2.80
2010,04,24,03,46,2.80
2010,04,24,03,47,2.80
2010,04,24,03,48,2.90
2010,04,24,03,49,2.80
2010,04,24,03,50,2.90
2010,04,24,03,51,2.90
2010,04,24,03,52,2.90
2010,04,24,03,53,2.90
2010,04,24,03,54,2.90
2010,04,24,03,55,2.90
2010,04,24,03,56,2.90
2010,04,24,03,57,2.90
2010,04,24,03,58,2.90
2010,04,24,03,59,3.00
2010,04,24,04,00,3.00
2010,04,24,04,01,3.00
2010,04,24,04,02,3.00
2010,04,24,04,03,3.00
2010,04,24,04,04,3.00
2010,04,24,04,05,3.10
2010,04,24,04,06,3.10
2010,04,24,04,07,3.10
2010,04,24,04,08,3.10
2010,04,24,04,09,3.10
2010,04,24,04,10,3.10
2010,04,24,04,11,3.10
2010,04,24,04,12,3.10
2010,04,24,04,13,3.10
2010,04,24,04,14,3.10
2010,04,24,04,15,3.10
2010,04,24,04,16,3.10
2010,04,24,04,17,3.10
2010,04,24,04,18,3.10
2010,04,24,04,19,3.10
2010,04,24,04,20,3.10
2010,04,24,04,21,3.10
2010,04,24,04,22,3.10
2010,04,24,04,23,3.20
2010,04,24,04,24,3.20
2010,04,24,04,25,3.10
2010,04,24,04,26,3.20
2010,04,24,04,27,3.20
2010,04,24,04,28,3.20
2010,04,24,04,29,3.20
2010,04,24,04,30,3.20
2010,04,24,04,31,3.20
2010,04,24,04,32,3.20
2010,04,24,04,33,3.30
2010,04,24,04,34,3.30
2010,04,24,04,35,3.30
2010,04,24,04,36,3.30
2010,04,24,04,37,3.30
2010,04,24,04,38,3.30
2010,04,24,04,39,3.30
2010,04,24,04,40,3.30
2010,04,24,04,41,3.30
2010,04,24,04,42,3.30
2010,04,24,04,43,3.30
2010,04,24,04,44,3.30
2010,04,24,04,45,3.40
2010,04,24,04,46,3.40
2010,04,24,04,47,3.40
2010,04,24,04,48,3.40
2010,04,24,04,49,3.50
2010,04,24,04,50,3.50
2010,04,24,04,51,3.60
2010,04,24,04,52,3.60
2010,04,24,04,53,3.60
2010,04,24,04,54,3.70
2010,04,24,04,55,3.70
2010,04,24,04,56,3.80
2010,04,24,04,57,3.80
2010,04,24,04,58,3.80
2010,04,24,04,59,3.80
2010,04,24,05,00,3.80
2010,04,24,05,01,3.90
2010,04,24,05,02,3.90
2010,04,24,05,03,3.90
2010,04,24,05,04,3.90
2010,04,24,05,05,3.90
2010,04,24,05,06,3.90
2010,04,24,05,07,3.90
2010,04,24,05,08,3.90
2010,04,24,05,09,3.90
2010,04,24,05,10,3.90
2010,04,24,05,11,3.90
2010,04,24,05,12,3.90
2010,04,24,05,13,3.90
2010,04,24,05,14,3.90
2010,04,24,05,15,3.90
2010,04,24,05,16,3.90
2010,04,24,05,17,3.90
2010,04,24,05,18,3.90
2010,04,24,05,19,3.90
2010,04,24,05,20,3.90
2010,04,24,05,21,3.90
2010,04,24,05,22,3.90
2010,04,24,05,23,3.90
2010,04,24,05,24,3.90
2010,04,24,05,25,3.90
2010,04,24,05,26,3.90
2010,04,24,05,27,3.90
2010,04,24,05,28,3.90
2010,04,24,05,29,3.90
2010,04,24,05,30,3.90
2010,04,24,05,31,3.90
2010,04,24,05,32,3.90
2010,04,24,05,33,3.90
2010,04,24,05,34,3.90
2010,04,24,05,35,3.90
2010,04,24,05,36,3.90
2010,04,24,05,37,3.90
2010,04,24,05,38,3.90
2010,04,24,05,39,3.90
2010,04,24,05,40,3.90
2010,04,24,05,41,3.90
2010,04,24,05,42,3.90
2010,04,24,05,43,3.90
2010,04,24,05,44,3.80
2010,04,24,05,45,3.80
2010,04,24,05,46,3.80
2010,04,24,05,47,3.80
2010,04,24,05,48,3.80
2010,04,24,05,49,3.80
2010,04,24,05,50,3.80
2010,04,24,05,51,3.80
2010,04,24,05,52,3.80
2010,04,24,05,53,3.80
2010,04,24,05,54,3.80
2010,04,24,05,55,3.70
2010,04,24,05,56,3.70
2010,04,24,05,57,3.70
2010,04,24,05,58,3.70
2010,04,24,05,59,3.70
2010,04,24,06,00,3.70
2010,04,24,06,01,3.70
2010,04,24,06,02,3.70
2010,04,24,06,03,3.70
2010,04,24,06,04,3.70
2010,04,24,06,05,3.70
2010,04,24,06,06,3.70
2010,04,24,06,07,3.70
2010,04,24,06,08,3.70
2010,04,24,06,09,3.70
2010,04,24,06,10,3.70
2010,04,24,06,11,3.70
2010,04,24,06,12,3.70
2010,04,24,06,13,3.70
2010,04,24,06,14,3.70
2010,04,24,06,15,3.80
2010,04,24,06,16,3.70
2010,04,24,06,17,3.70
2010,04,24,06,18,3.70
2010,04,24,06,19,3.70
2010,04,24,06,20,3.70
2010,04,24,06,21,3.70
2010,04,24,06,22,3.70
2010,04,24,06,23,3.70
2010,04,24,06,24,3.70
2010,04,24,06,25,3.70
2010,04,24,06,26,3.80
2010,04,24,06,27,3.70
2010,04,24,06,28,3.80
2010,04,24,06,29,3.80
2010,04,24,06,30,3.80
2010,04,24,06,31,3.80
2010,04,24,06,32,3.80
2010,04,24,06,33,3.80
2010,04,24,06,34,3.80
2010,04,24,06,35,3.80
2010,04,24,06,36,3.80
2010,04,24,06,37,3.80
2010,04,24,06,38,3.80
2010,04,24,06,39,3.80
2010,04,24,06,40,3.80
2010,04,24,06,41,3.80
2010,04,24,06,42,3.80
2010,04,24,06,43,3.80
2010,04,24,06,44,3.80
2010,04,24,06,45,3.80
2010,04,24,06,46,3.80
2010,04,24,06,47,3.80
2010,04,24,06,48,3.80
2010,04,24,06,49,3.80
2010,04,24,06,50,3.80
2010,04,24,06,51,3.80
2010,04,24,06,52,3.80
2010,04,24,06,53,3.80
2010,04,24,06,54,3.80
2010,04,24,06,55,3.90
2010,04,24,06,56,3.90
2010,04,24,06,57,3.90
2010,04,24,06,58,3.90
2010,04,24,06,59,3.90
2010,04,24,07,00,3.90
2010,04,24,07,01,3.90
2010,04,24,07,02,3.90
2010,04,24,07,03,3.90
2010,04,24,07,04,3.90
2010,04,24,07,05,4.00
2010,04,24,07,06,4.00
2010,04,24,07,07,4.00
2010,04,24,07,08,4.00
2010,04,24,07,09,4.00
2010,04,24,07,10,4.10
2010,04,24,07,11,4.10
2010,04,24,07,12,4.10
2010,04,24,07,13,4.10
2010,04,24,07,14,4.10
2010,04,24,07,15,4.10
2010,04,24,07,16,4.10
2010,04,24,07,17,4.10
2010,04,24,07,18,4.10
2010,04,24,07,19,4.10
2010,04,24,07,20,4.10
2010,04,24,07,21,4.10
2010,04,24,07,22,4.10
2010,04,24,07,23,4.10
2010,04,24,07,24,4.10
2010,04,24,07,25,4.10
2010,04,24,07,26,4.10
2010,04,24,07,27,4.10
2010,04,24,07,28,4.10
2010,04,24,07,29,4.10
2010,04,24,07,30,4.10
2010,04,24,07,31,4.20
2010,04,24,07,32,4.20
2010,04,24,07,33,4.20
2010,04,24,07,34,4.20
2010,04,24,07,35,4.20
2010,04,24,07,36,4.20
2010,04,24,07,37,4.30
2010,04,24,07,38,4.30
2010,04,24,07,39,4.30
2010,04,24,07,40,4.30
2010,04,24,07,41,4.30
2010,04,24,07,42,4.40
2010,04,24,07,43,4.40
2010,04,24,07,44,4.40
2010,04,24,07,45,4.40
2010,04,24,07,46,4.40
2010,04,24,07,47,4.50
2010,04,24,07,48,4.50
2010,04,24,07,49,4.50
2010,04,24,07,50,4.60
2010,04,24,07,51,4.60
2010,04,24,07,52,4.60
2010,04,24,07,53,4.60
2010,04,24,07,54,4.70
2010,04,24,07,55,4.70
2010,04,24,07,56,4.70
2010,04,24,07,57,4.70
2010,04,24,07,58,4.70
2010,04,24,07,59,4.70
2010,04,24,08,00,4.70
2010,04,24,08,01,4.80
2010,04,24,08,02,4.80
2010,04,24,08,03,4.80
2010,04,24,08,04,4.80
2010,04,24,08,05,4.90
2010,04,24,08,06,4.90
2010,04,24,08,07,4.90
2010,04,24,08,08,4.90
2010,04,24,08,09,5.00
2010,04,24,08,10,5.00
2010,04,24,08,11,5.00
2010,04,24,08,12,5.10
2010,04,24,08,13,5.10
2010,04,24,08,14,5.20
2010,04,24,08,15,5.20
2010,04,24,08,16,5.20
2010,04,24,08,17,5.30
2010,04,24,08,18,5.30
2010,04,24,08,19,5.40
2010,04,24,08,20,5.40
2010,04,24,08,21,5.40
2010,04,24,08,22,5.50
2010,04,24,08,23,5.50
2010,04,24,08,24,5.60
2010,04,24,08,25,5.60
2010,04,24,08,26,5.60
2010,04,24,08,27,5.60
2010,04,24,08,28,5.50
2010,04,24,08,29,5.50
2010,04,24,08,30,5.50
2010,04,24,08,31,5.50
2010,04,24,08,32,5.50
2010,04,24,08,33,5.50
2010,04,24,08,34,5.50
2010,04,24,08,35,5.50
2010,04,24,08,36,5.50
2010,04,24,08,37,5.50
2010,04,24,08,38,5.50
2010,04,24,08,39,5.50
2010,04,24,08,40,5.50
2010,04,24,08,41,5.50
2010,04,24,08,42,5.50
2010,04,24,08,43,5.50
2010,04,24,08,44,5.60
2010,04,24,08,45,5.60
2010,04,24,08,46,5.60
2010,04,24,08,47,5.60
2010,04,24,08,48,5.60
2010,04,24,08,49,5.60
2010,04,24,08,50,5.60
2010,04,24,08,51,5.60
2010,04,24,08,52,5.60
2010,04,24,08,53,5.60
2010,04,24,08,54,5.70
2010,04,24,08,55,5.70
2010,04,24,08,56,5.70
2010,04,24,08,57,5.70
2010,04,24,08,58,5.70
2010,04,24,08,59,5.70
2010,04,24,09,00,5.60
2010,04,24,09,01,5.60
2010,04,24,09,02,5.70
2010,04,24,09,03,5.70
2010,04,24,09,04,5.70
2010,04,24,09,05,5.80
2010,04,24,09,06,5.80
2010,04,24,09,07,5.80
2010,04,24,09,08,5.90
2010,04,24,09,09,5.90
2010,04,24,09,10,6.00
2010,04,24,09,11,6.00
2010,04,24,09,12,6.00
2010,04,24,09,13,5.90
2010,04,24,09,14,6.00
2010,04,24,09,15,6.10
2010,04,24,09,16,6.10
2010,04,24,09,17,6.10
2010,04,24,09,18,6.10
2010,04,24,09,19,6.10
2010,04,24,09,20,6.10
2010,04,24,09,21,6.10
2010,04,24,09,22,6.10
2010,04,24,09,23,6.10
2010,04,24,09,24,6.10
2010,04,24,09,25,6.20
2010,04,24,09,26,6.20
2010,04,24,09,27,6.30
2010,04,24,09,28,6.30
2010,04,24,09,29,6.30
2010,04,24,09,30,6.30
2010,04,24,09,31,6.40
2010,04,24,09,32,6.50
2010,04,24,09,33,6.50
2010,04,24,09,34,6.50
2010,04,24,09,35,6.60
2010,04,24,09,36,6.50
2010,04,24,09,37,6.50
2010,04,24,09,38,6.40
2010,04,24,09,39,6.40
2010,04,24,09,40,6.40
2010,04,24,09,41,6.40
2010,04,24,09,42,6.50
2010,04,24,09,43,6.50
2010,04,24,09,44,6.60
2010,04,24,09,45,6.60
2010,04,24,09,46,6.70
2010,04,24,09,47,6.70
2010,04,24,09,48,6.70
2010,04,24,09,49,6.70
2010,04,24,09,50,6.80
2010,04,24,09,51,6.80
2010,04,24,09,52,6.80
2010,04,24,09,53,6.80
2010,04,24,09,54,6.90
2010,04,24,09,55,7.00
2010,04,24,09,56,7.00
2010,04,24,09,57,7.10
2010,04,24,09,58,7.10
2010,04,24,09,59,7.10
2010,04,24,10,00,7.20
2010,04,24,10,01,7.20
2010,04,24,10,02,7.20
2010,04,24,10,03,7.20
2010,04,24,10,04,7.30
2010,04,24,10,05,7.30
2010,04,24,10,06,7.40
2010,04,24,10,07,7.40
2010,04,24,10,08,7.40
2010,04,24,10,09,7.50
2010,04,24,10,10,7.60
2010,04,24,10,11,7.70
2010,04,24,10,12,7.80
2010,04,24,10,13,7.80
2010,04,24,10,14,7.90
2010,04,24,10,15,7.90
2010,04,24,10,16,7.90
2010,04,24,10,17,7.90
2010,04,24,10,18,7.90
2010,04,24,10,19,7.80
2010,04,24,10,20,7.70
2010,04,24,10,21,7.60
2010,04,24,10,22,7.60
2010,04,24,10,23,7.60
2010,04,24,10,24,7.50
2010,04,24,10,25,7.50
2010,04,24,10,26,7.40
2010,04,24,10,27,7.40
2010,04,24,10,28,7.30
2010,04,24,10,29,7.30
2010,04,24,10,30,7.30
2010,04,24,10,31,7.30
2010,04,24,10,32,7.30
2010,04,24,10,33,7.30
2010,04,24,10,34,7.30
2010,04,24,10,35,7.30
2010,04,24,10,36,7.20
2010,04,24,10,37,7.20
2010,04,24,10,38,7.20
2010,04,24,10,39,7.20
2010,04,24,10,40,7.20
2010,04,24,10,41,7.10
2010,04,24,10,42,7.10
2010,04,24,10,43,7.10
2010,04,24,10,44,7.00
2010,04,24,10,45,7.00
2010,04,24,10,46,6.90
2010,04,24,10,47,6.90
2010,04,24,10,48,6.80
2010,04,24,10,49,6.70
2010,04,24,10,50,6.70
2010,04,24,10,51,6.70
2010,04,24,10,52,6.60
2010,04,24,10,53,6.60
2010,04,24,10,54,6.50
2010,04,24,10,55,6.40
2010,04,24,10,56,6.40
2010,04,24,10,57,6.40
2010,04,24,10,58,6.40
2010,04,24,10,59,6.40
2010,04,24,11,00,6.40
2010,04,24,11,01,6.40
2010,04,24,11,02,6.40
2010,04,24,11,03,6.50
2010,04,24,11,04,6.50
2010,04,24,11,05,6.40
2010,04,24,11,06,6.40
2010,04,24,11,07,6.40
2010,04,24,11,08,6.50
2010,04,24,11,09,6.50
2010,04,24,11,10,6.50
2010,04,24,11,11,6.50
2010,04,24,11,12,6.50
2010,04,24,11,13,6.60
2010,04,24,11,14,6.60
2010,04,24,11,15,6.60
2010,04,24,11,16,6.60
2010,04,24,11,17,6.60
2010,04,24,11,18,6.60
2010,04,24,11,19,6.60
2010,04,24,11,20,6.50
2010,04,24,11,21,6.50
2010,04,24,11,22,6.50
2010,04,24,11,23,6.40
2010,04,24,11,24,6.40
2010,04,24,11,25,6.40
2010,04,24,11,26,6.40
2010,04,24,11,27,6.40
2010,04,24,11,28,6.40
2010,04,24,11,29,6.40
2010,04,24,11,30,6.40
2010,04,24,11,31,6.40
2010,04,24,11,32,6.40
2010,04,24,11,33,6.40
2010,04,24,11,34,6.30
2010,04,24,11,35,6.30
2010,04,24,11,36,6.30
2010,04,24,11,37,6.30
2010,04,24,11,38,6.40
2010,04,24,11,39,6.40
2010,04,24,11,40,6.40
2010,04,24,11,41,6.40
2010,04,24,11,42,6.50
2010,04,24,11,43,6.60
2010,04,24,11,44,6.70
2010,04,24,11,45,6.70
2010,04,24,11,46,6.80
2010,04,24,11,47,6.90
2010,04,24,11,48,7.00
2010,04,24,11,49,7.00
2010,04,24,11,50,7.10
2010,04,24,11,51,7.20
2010,04,24,11,52,7.20
2010,04,24,11,53,7.20
2010,04,24,11,54,7.20
2010,04,24,11,55,7.20
2010,04,24,11,56,7.10
2010,04,24,11,57,7.10
2010,04,24,11,58,7.10
2010,04,24,11,59,7.10
2010,04,24,12,00,7.10
2010,04,24,12,01,7.20
2010,04,24,12,02,7.20
2010,04,24,12,03,7.20
2010,04,24,12,04,7.20
2010,04,24,12,05,7.20
2010,04,24,12,06,7.20
2010,04,24,12,07,7.30
2010,04,24,12,08,7.30
2010,04,24,12,09,7.40
2010,04,24,12,10,7.40
2010,04,24,12,11,7.60
2010,04,24,12,12,7.60
2010,04,24,12,13,7.70
2010,04,24,12,14,7.80
2010,04,24,12,15,8.00
2010,04,24,12,16,8.10
2010,04,24,12,17,8.20
2010,04,24,12,18,8.20
2010,04,24,12,19,8.20
2010,04,24,12,20,8.30
2010,04,24,12,21,8.40
2010,04,24,12,22,8.40
2010,04,24,12,23,8.50
2010,04,24,12,24,8.50
2010,04,24,12,25,8.50
2010,04,24,12,26,8.40
2010,04,24,12,27,8.40
2010,04,24,12,28,8.40
2010,04,24,12,29,8.40
2010,04,24,12,30,8.40
2010,04,24,12,31,8.40
2010,04,24,12,32,8.50
2010,04,24,12,33,8.50
2010,04,24,12,34,8.60
2010,04,24,12,35,8.70
2010,04,24,12,36,8.80
2010,04,24,12,37,8.90
2010,04,24,12,38,9.00
2010,04,24,12,39,9.10
2010,04,24,12,40,9.10
2010,04,24,12,41,9.10
2010,04,24,12,42,9.10
2010,04,24,12,43,9.10
2010,04,24,12,44,9.20
2010,04,24,12,45,9.20
2010,04,24,12,46,9.30
2010,04,24,12,47,9.40
2010,04,24,12,48,9.40
2010,04,24,12,49,9.40
2010,04,24,12,50,9.40
2010,04,24,12,51,9.30
2010,04,24,12,52,9.30
2010,04,24,12,53,9.20
2010,04,24,12,54,9.00
2010,04,24,12,55,8.80
2010,04,24,12,56,8.50
2010,04,24,12,57,8.40
2010,04,24,12,58,8.20
2010,04,24,12,59,8.10
2010,04,24,13,00,7.90
2010,04,24,13,01,7.80
2010,04,24,13,02,7.80
2010,04,24,13,03,7.70
2010,04,24,13,04,7.70
2010,04,24,13,05,7.70
2010,04,24,13,06,7.70
2010,04,24,13,07,7.70
2010,04,24,13,08,7.80
2010,04,24,13,09,7.80
2010,04,24,13,10,7.80
2010,04,24,13,11,7.90
2010,04,24,13,12,7.90
2010,04,24,13,13,8.00
2010,04,24,13,14,8.10
2010,04,24,13,15,8.10
2010,04,24,13,16,8.10
2010,04,24,13,17,8.20
2010,04,24,13,18,8.20
2010,04,24,13,19,8.20
2010,04,24,13,20,8.30
2010,04,24,13,21,8.30
2010,04,24,13,22,8.30
2010,04,24,13,23,8.40
2010,04,24,13,24,8.40
2010,04,24,13,25,8.50
2010,04,24,13,26,8.40
2010,04,24,13,27,8.40
2010,04,24,13,28,8.30
2010,04,24,13,29,8.20
2010,04,24,13,30,8.20
2010,04,24,13,31,8.10
2010,04,24,13,32,8.10
2010,04,24,13,33,8.10
2010,04,24,13,34,8.10
2010,04,24,13,35,8.10
2010,04,24,13,36,8.20
2010,04,24,13,37,8.20
2010,04,24,13,38,8.20
2010,04,24,13,39,8.20
2010,04,24,13,40,8.20
2010,04,24,13,41,8.30
2010,04,24,13,42,8.30
2010,04,24,13,43,8.30
2010,04,24,13,44,8.30
2010,04,24,13,45,8.40
2010,04,24,13,46,8.40
2010,04,24,13,47,8.50
2010,04,24,13,48,8.60
2010,04,24,13,49,8.60
2010,04,24,13,50,8.80
2010,04,24,13,51,8.80
2010,04,24,13,52,8.80
2010,04,24,13,53,8.90
2010,04,24,13,54,8.90
2010,04,24,13,55,9.00
2010,04,24,13,56,9.00
2010,04,24,13,57,9.10
2010,04,24,13,58,9.10
2010,04,24,13,59,9.20
2010,04,24,14,00,9.20
2010,04,24,14,01,9.30
2010,04,24,14,02,9.40
2010,04,24,14,03,9.50
2010,04,24,14,04,9.50
2010,04,24,14,05,9.50
2010,04,24,14,06,9.60
2010,04,24,14,07,9.60
2010,04,24,14,08,9.50
2010,04,24,14,09,9.40
2010,04,24,14,10,9.30
2010,04,24,14,11,9.30
2010,04,24,14,12,9.20
2010,04,24,14,13,9.20
2010,04,24,14,14,9.10
2010,04,24,14,15,9.00
2010,04,24,14,16,9.00
2010,04,24,14,17,8.90
2010,04,24,14,18,8.90
2010,04,24,14,19,8.90
2010,04,24,14,20,9.00
2010,04,24,14,21,9.00
2010,04,24,14,22,9.10
2010,04,24,14,23,9.10
2010,04,24,14,24,9.10
2010,04,24,14,25,9.20
2010,04,24,14,26,9.20
2010,04,24,14,27,9.30
2010,04,24,14,28,9.30
2010,04,24,14,29,9.30
2010,04,24,14,30,9.20
2010,04,24,14,31,9.20
2010,04,24,14,32,9.20
2010,04,24,14,33,9.20
2010,04,24,14,34,9.10
2010,04,24,14,35,9.10
2010,04,24,14,36,9.10
2010,04,24,14,37,9.10
2010,04,24,14,38,9.10
2010,04,24,14,39,9.10
2010,04,24,14,40,9.10
2010,04,24,14,41,9.20
2010,04,24,14,42,9.20
2010,04,24,14,43,9.30
2010,04,24,14,44,9.30
2010,04,24,14,45,9.30
2010,04,24,14,46,9.40
2010,04,24,14,47,9.40
2010,04,24,14,48,9.40
2010,04,24,14,49,9.40
2010,04,24,14,50,9.30
2010,04,24,14,51,9.30
2010,04,24,14,52,9.30
2010,04,24,14,53,9.40
2010,04,24,14,54,9.40
2010,04,24,14,55,9.40
2010,04,24,14,56,9.50
2010,04,24,14,57,9.50
2010,04,24,14,58,9.60
2010,04,24,14,59,9.70
2010,04,24,15,00,9.80
2010,04,24,15,01,9.80
2010,04,24,15,02,9.80
2010,04,24,15,03,9.80
2010,04,24,15,04,9.80
2010,04,24,15,05,9.80
2010,04,24,15,06,9.90
2010,04,24,15,07,9.90
2010,04,24,15,08,9.90
2010,04,24,15,09,10.00
2010,04,24,15,10,10.00
2010,04,24,15,11,10.10
2010,04,24,15,12,10.20
2010,04,24,15,13,10.20
2010,04,24,15,14,10.30
2010,04,24,15,15,10.40
2010,04,24,15,16,10.40
2010,04,24,15,17,10.40
2010,04,24,15,18,10.50
2010,04,24,15,19,10.50
2010,04,24,15,20,10.60
2010,04,24,15,21,10.60
2010,04,24,15,22,10.70
2010,04,24,15,23,10.70
2010,04,24,15,24,10.70
2010,04,24,15,25,10.70
2010,04,24,15,26,10.60
2010,04,24,15,27,10.50
2010,04,24,15,28,10.50
2010,04,24,15,29,10.50
2010,04,24,15,30,10.40
2010,04,24,15,31,10.40
2010,04,24,15,32,10.50
2010,04,24,15,33,10.50
2010,04,24,15,34,10.50
2010,04,24,15,35,10.50
2010,04,24,15,36,10.60
2010,04,24,15,37,10.50
2010,04,24,15,38,10.40
2010,04,24,15,39,10.40
2010,04,24,15,40,10.50
2010,04,24,15,41,10.50
2010,04,24,15,42,10.60
2010,04,24,15,43,10.60
2010,04,24,15,44,10.60
2010,04,24,15,45,10.60
2010,04,24,15,46,10.60
2010,04,24,15,47,10.60
2010,04,24,15,48,10.60
2010,04,24,15,49,10.50
2010,04,24,15,50,10.50
2010,04,24,15,51,10.50
2010,04,24,15,52,10.50
2010,04,24,15,53,10.50
2010,04,24,15,54,10.40
2010,04,24,15,55,10.40
2010,04,24,15,56,10.40
2010,04,24,15,57,10.50
2010,04,24,15,58,10.50
2010,04,24,15,59,10.50
2010,04,24,16,00,10.40
2010,04,24,16,01,10.40
2010,04,24,16,02,10.40
2010,04,24,16,03,10.40
2010,04,24,16,04,10.40
2010,04,24,16,05,10.30
2010,04,24,16,06,10.30
2010,04,24,16,07,10.20
2010,04,24,16,08,10.10
2010,04,24,16,09,10.00
2010,04,24,16,10,9.90
2010,04,24,16,11,9.80
2010,04,24,16,12,9.80
2010,04,24,16,13,9.70
2010,04,24,16,14,9.70
2010,04,24,16,15,9.60
2010,04,24,16,16,9.60
2010,04,24,16,17,9.50
2010,04,24,16,18,9.50
2010,04,24,16,19,9.40
2010,04,24,16,20,9.40
2010,04,24,16,21,9.40
2010,04,24,16,22,9.30
2010,04,24,16,23,9.20
2010,04,24,16,24,9.20
2010,04,24,16,25,9.10
2010,04,24,16,26,9.00
2010,04,24,16,27,8.90
2010,04,24,16,28,8.90
2010,04,24,16,29,8.80
2010,04,24,16,30,8.80
2010,04,24,16,31,8.80
2010,04,24,16,32,8.80
2010,04,24,16,33,8.80
2010,04,24,16,34,8.80
2010,04,24,16,35,8.80
2010,04,24,16,36,8.80
2010,04,24,16,37,8.80
2010,04,24,16,38,8.90
2010,04,24,16,39,8.90
2010,04,24,16,40,8.90
2010,04,24,16,41,9.00
2010,04,24,16,42,9.00
2010,04,24,16,43,9.00
2010,04,24,16,44,9.00
2010,04,24,16,45,8.90
2010,04,24,16,46,8.90
2010,04,24,16,47,8.80
2010,04,24,16,48,8.80
2010,04,24,16,49,8.80
2010,04,24,16,50,8.70
2010,04,24,16,51,8.70
2010,04,24,16,52,8.70
2010,04,24,16,53,8.70
2010,04,24,16,54,8.70
2010,04,24,16,55,8.70
2010,04,24,16,56,8.70
2010,04,24,16,57,8.70
2010,04,24,16,58,8.70
2010,04,24,16,59,8.70
2010,04,24,17,00,8.70
2010,04,24,17,01,8.70
2010,04,24,17,02,8.70
2010,04,24,17,03,8.80
2010,04,24,17,04,8.80
2010,04,24,17,05,8.80
2010,04,24,17,06,8.80
2010,04,24,17,07,8.80
2010,04,24,17,08,8.80
2010,04,24,17,09,8.80
2010,04,24,17,10,8.80
2010,04,24,17,11,8.90
2010,04,24,17,12,8.90
2010,04,24,17,13,8.90
2010,04,24,17,14,8.90
2010,04,24,17,15,8.90
2010,04,24,17,16,8.90
2010,04,24,17,17,8.90
2010,04,24,17,18,8.90
2010,04,24,17,19,8.90
2010,04,24,17,20,9.00
2010,04,24,17,21,9.00
2010,04,24,17,22,9.00
2010,04,24,17,23,9.10
2010,04,24,17,24,9.10
2010,04,24,17,25,9.10
2010,04,24,17,26,9.10
2010,04,24,17,27,9.10
2010,04,24,17,28,9.00
2010,04,24,17,29,9.00
2010,04,24,17,30,9.00
2010,04,24,17,31,8.90
2010,04,24,17,32,8.90
2010,04,24,17,33,9.00
2010,04,24,17,34,9.00
2010,04,24,17,35,9.00
2010,04,24,17,36,9.00
2010,04,24,17,37,9.00
2010,04,24,17,38,8.90
2010,04,24,17,39,8.90
2010,04,24,17,40,8.90
2010,04,24,17,41,8.90
2010,04,24,17,42,8.90
2010,04,24,17,43,8.90
2010,04,24,17,44,8.90
2010,04,24,17,45,8.90
2010,04,24,17,46,8.90
2010,04,24,17,47,8.90
2010,04,24,17,48,8.90
2010,04,24,17,49,8.90
2010,04,24,17,50,8.90
2010,04,24,17,51,8.90
2010,04,24,17,52,8.90
2010,04,24,17,53,8.80
2010,04,24,17,54,8.80
2010,04,24,17,55,8.80
2010,04,24,17,56,8.80
2010,04,24,17,57,8.80
2010,04,24,17,58,8.70
2010,04,24,17,59,8.70
2010,04,24,18,00,8.70
2010,04,24,18,01,8.70
2010,04,24,18,02,8.60
2010,04,24,18,03,8.60
2010,04,24,18,04,8.60
2010,04,24,18,05,8.50
2010,04,24,18,06,8.50